Temperature
7 6 6 6 7 7 7 7 7 7 7 7 6 7 7 7 7 7 8 8 8 9 9 9 9 8 8 8 8 9 8 8 8 8 8 8 8 8 8 8 8 8 8 8
5 6 6 6 7 7 6 6 6 6 7 7 6 6 6 6 6 7 7 7 8 8 8 8 8 8 8 8 8 8 8 8 8 8 8 8 8 7 7 7 7 7 7 7
6 6 7 7 6 6 6 6 6 6 6 6 6 6 6 6 6 7 7 8 8 8 8 8 8 8 8 8 8 7 7 7 7 7 7 7 7 7 7 7 7 7 7 7
5 6 6 6 6 6 6 6 6 6 5 5 5 5 6 5 5 5 6 7 7 7 7 7 7 8 8 7 7 7 7 7 7 7 7 7 7 7 7 6 6 6 6 6
5 5 6 6 6 6 6 6 5 5 5 4 4 4 5 5 5 5 6 6 7 7 7 7 7 7 7 7 7 7 7 6 6 6 6 6 6 6 6 6 6 6 6 6
5 5 5 5 5 5 5 5 4 3 3 4 4 4 5 4 5 5 5 6 7 7 7 7 7 7 7 7 7 6 6 6 6 6 6 6 6 6 6 5 5 5 5 5
4 5 5 5 5 5 5 4 3 4 3 4 3 4 5 5 5 5 5 6 6 7 6 6 6 6 6 6 6 6 6 6 6 5 5 5 5 5 5 5 5 5 5 5
3 4 4 4 5 4 4 4 4 4 3 3 3 3 4 5 4 5 5 6 6 6 6 6 6 6 6 6 6 5 5 5 5 5 5 5 5 5 5 4 4 4 4 5
3 3 4 4 4 4 4 3 4 3 2 2 3 3 3 4 4 4 4 4 5 5 5 5 5 5 5 5 5 5 5 5 5 4 4 4 4 4 4 4 4 4 4 4
3 2 3 3 4 4 4 3 2 2 3 3 4 3 4 5 4 4 3 4 5 5 5 5 5 5 5 5 5 5 4 4 4 4 4 4 4 4 4 4 4 4 4 4
2 2 2 2 2 3 3 2 2 2 2 3 3 4 4 4 4 3 3 4 4 5 5 5 5 5 5 5 4 4 4 4 4 4 4 4 4 4 4 4 4 3 4 3
1 0 0 1 2 2 2 2 2 2 1 1 2 3 4 3 3 3 3 4 4 5 5 4 4 4 4 4 4 4 4 3 3 3 3 3 3 3 3 3 3 3 3 3
1 0 1 2 2 1 1 1 1 1 0 0 1 3 4 2 3 3 3 4 4 4 4 4 4 4 4 4 3 3 3 3 3 3 3 3 3 3 3 3 3 3 3 3
1 -0 0 2 2 0 0 1 1 0 0 0 1 3 3 3 3 2 3 3 3 3 4 4 3 3 3 3 3 3 3 2 2 2 2 3 3 3 3 3 3 2 2 2
0 -0 -1 -1 0 0 0 0 0 0 1 1 2 2 3 3 2 2 3 3 3 3 3 3 3 3 3 3 3 2 2 2 2 2 2 2 2 2 2 2 2 2 2 2
-1 -1 -2 -1 -0 -0 -0 0 0 0 1 1 1 2 2 2 2 2 2 2 2 2 2 2 2 2 2 2 2 2 2 1 1 1 1 2 2 2 2 2 1 1 1 1
-2 -2 -2 -1 -1 -0 -0 0 0 -0 -0 -0 1 2 1 1 1 1 2 2 2 2 2 2 2 2 2 2 2 2 1 1 1 1 1 1 1 1 1 1 1 1 1 1
-2 -2 -2 -2 -1 -0 1 -0 -0 -0 -0 -1 -0 0 0 1 1 2 2 2 2 2 2 2 2 1 1 1 1 1 1 1 1 1 1 1 1 1 1 1 1 0 0 0
-3 -2 -2 -2 -2 -1 0 -0 -1 -1 -1 -1 -1 -0 -0 0 0 1 2 2 2 2 1 1 1 1 1 1 1 1 1 1 0 0 0 0 0 0 0 0 0 -0 -0 -0
-3 -3 -2 -2 -2 -1 1 -0 -1 -1 -1 -1 -1 -1 -1 -1 -1 0 2 1 1 1 1 1 1 1 1 1 0 0 0 0 -0 -0 -0 -0 -0 -0 -0 -0 -0 -0 -1 -1
-3 -3 -3 -3 -2 -2 -1 -1 -1 -0 0 0 -0 -0 -1 -1 -0 1 1 1 1 1 1 1 0 0 0 0 -0 -0 -0 -0 -0 -0 -0 -0 -1 -1 -1 -1 -1 -1 -1 -1
-3 -3 -4 -3 -2 -1 -1 -2 -1 -1 0 0 0 0 -0 -0 -0 -0 0 0 0 0 0 0 0 -0 -0 -0 -0 -1 -1 -1 -1 -1 -1 -1 -1 -1 -1 -1 -1 -2 -2 -2
-4 -3 -3 -3 -1 -1 -1 -1 0 0 -0 -0 -0 0 -0 -1 -1 -1 -0 -0 -0 -0 -0 -0 -0 -0 -0 -1 -1 -1 -1 -1 -1 -1 -1 -1 -1 -1 -2 -2 -2 -2 -2 -2
-5 -5 -4 -4 -3 -2 -1 -1 -0 -0 -0 -0 -0 -0 -0 -1 -1 -1 -1 -1 -1 -0 -0 -1 -1 -1 -1 -1 -1 -1 -1 -2 -2 -2 -2 -2 -2 -2 -2 -2 -2 -2 -3 -3
-4 -5 -5 -5 -4 -3 -1 -1 -0 -0 -0 -0 -0 -0 -0 -1 -1 -1 -1 -1 -1 -1 -1 -1 -1 -1 -1 -1 -2 -2 -2 -2 -2 -2 -2 -2 -2 -2 -2 -2 -3 -3 -3 -3
-5 -5 -5 -3 -3 -3 -2 -1 -1 -1 -1 -1 -1 -1 -1 -1 -1 -1 -1 -1 -1 -1 -1 -2 -2 -2 -2 -2 -2 -2 -2 -2 -2 -2 -2 -3 -3 -3 -3 -3 -3 -3 -3 -4
Wind_Speed
3 3 3 6 6 4 3 4 6 7 4 4 9 12 12 8 6 8 8 7 7 7 5 3 3 3 3 2 3 3 3 2 3 2 2 2 2 1 1 1 1 2 2 2
3 4 6 3 3 3 3 5 6 6 3 4 7 12 11 9 8 8 9 9 8 6 3 2 2 3 4 4 4 3 3 3 3 3 2 2 2 1 1 1 0 1 1 2
6 4 2 3 3 3 5 6 6 6 5 3 5 8 7 6 6 7 7 8 7 8 7 5 4 4 4 4 5 4 4 3 3 2 2 1 1 0 1 1 1 1 1 2
3 3 1 2 4 5 7 5 5 4 3 5 1 6 8 6 6 7 8 7 7 7 6 6 5 4 5 5 4 4 4 3 3 3 3 4 3 2 2 2 2 1 1 2
4 2 3 5 5 5 5 2 2 3 3 4 3 4 9 3 7 9 8 7 7 7 7 6 6 6 5 4 4 4 4 3 3 3 4 4 3 3 2 1 2 2 1 1
3 2 2 3 1 3 2 2 2 2 1 5 6 6 8 5 8 7 7 6 6 5 5 5 4 4 3 2 3 3 4 3 3 3 3 4 4 3 3 2 3 2 2 1
4 3 1 1 1 1 2 3 2 3 2 7 3 6 10 8 7 7 7 7 5 4 4 4 4 4 3 3 3 3 4 3 4 4 4 4 5 5 5 5 4 4 3 2
1 5 2 1 3 4 4 6 5 5 5 5 3 8 8 6 4 4 4 4 3 3 4 5 6 5 5 4 4 3 4 3 4 4 4 4 4 4 4 5 4 5 4 4
3 5 3 2 2 4 4 4 4 3 1 3 6 7 8 4 4 3 3 3 3 4 5 5 5 5 5 5 5 5 4 4 4 4 4 4 4 4 4 4 4 4 4 3
4 4 4 3 1 1 2 5 4 4 3 5 6 5 5 5 6 5 4 5 5 4 4 4 5 5 5 5 4 3 4 3 3 3 3 3 4 4 4 4 4 4 4 3
2 3 4 2 3 4 2 2 3 3 3 4 5 7 5 5 5 6 6 6 5 5 5 5 4 4 3 3 3 2 2 1 2 2 2 2 2 3 3 4 4 4 3 3
2 3 4 6 4 2 4 4 5 4 5 4 4 8 4 3 4 4 5 5 4 4 4 4 3 3 3 3 2 2 2 2 2 2 1 1 2 2 2 3 4 3 3 3
3 3 2 5 3 2 2 3 4 3 2 4 5 8 4 4 6 5 5 5 4 3 3 2 2 3 3 3 3 2 2 2 1 1 1 1 1 2 2 3 3 3 3 3
2 3 6 7 5 3 4 5 5 5 5 6 9 12 12 11 9 8 6 5 3 3 2 2 2 3 3 3 3 3 2 1 1 0 1 1 1 1 2 2 2 3 3 3
3 4 5 7 7 4 7 9 9 11 10 10 11 12 16 12 9 8 6 4 3 3 2 2 3 2 2 2 2 2 2 1 1 0 0 1 1 1 1 1 1 2 2 2
2 3 2 4 5 6 8 10 11 12 11 12 13 15 13 9 6 6 5 4 4 4 3 3 2 2 3 3 3 2 2 1 1 1 1 0 1 1 1 1 1 2 2 2
3 3 2 4 3 2 7 8 9 6 6 7 11 12 8 7 7 7 6 6 6 5 4 3 3 3 3 3 3 3 2 1 1 1 1 1 1 1 1 1 2 1 2 2
5 4 3 2 1 6 7 2 5 7 7 7 7 8 8 8 8 6 5 6 6 5 4 3 3 2 2 2 2 1 1 1 1 1 1 1 1 1 1 1 1 1 1 1
4 5 3 2 3 7 7 3 3 4 6 5 8 9 8 6 5 5 4 4 5 5 4 3 3 2 1 1 2 2 1 2 2 1 1 1 1 1 1 1 1 0 1 1
1 2 3 3 3 6 6 3 1 2 5 5 5 7 6 3 4 7 4 2 3 2 2 2 1 0 1 1 2 3 2 2 2 2 1 1 2 2 2 2 1 0 1 1
2 1 4 5 5 7 7 2 3 2 6 5 4 6 4 5 6 5 4 3 2 1 1 1 1 1 1 1 2 2 2 2 2 1 1 1 1 1 2 2 1 1 1 1
6 5 5 4 4 8 3 3 5 7 5 5 5 5 6 6 5 4 3 2 1 1 1 1 1 0 1 1 2 2 2 2 1 1 1 1 1 1 1 2 1 1 1 1
7 7 5 8 8 5 4 6 6 4 6 6 6 7 5 5 5 4 3 2 2 1 1 1 1 0 1 0 2 2 2 1 1 1 1 1 1 1 2 2 2 1 1 1
4 2 3 5 9 8 7 7 7 7 7 7 7 6 5 5 4 4 3 2 1 1 1 1 1 1 1 1 0 1 1 1 1 1 1 2 2 1 1 1 2 1 1 1
5 4 4 7 8 7 7 7 8 7 7 6 6 5 5 4 4 4 3 2 2 1 1 1 1 1 2 1 0 1 1 1 1 1 1 1 1 1 1 0 1 1 2 3
4 5 5 7 6 5 7 6 6 6 7 6 5 5 3 3 4 3 3 2 1 1 1 0 1 1 1 1 1 1 1 1 2 1 1 1 1 1 1 0 1 1 1 2
Wind_Direction
44 81 210 219 207 209 207 221 248 260 273 250 251 264 268 261 244 245 249 243 236 237 240 215 192 185 173 175 176 182 178 186 171 171 178 183 203 219 196 140 160 162 156 150
50 244 237 212 198 199 215 245 260 282 288 253 267 270 264 247 233 230 234 237 233 233 230 209 191 180 181 186 189 189 186 187 193 195 192 187 192 207 212 188 172 192 174 166
198 241 210 182 209 214 234 224 238 264 313 290 299 288 259 249 237 241 235 231 228 217 213 212 204 197 192 196 198 196 197 191 196 189 165 139 122 116 210 230 243 257 218 183
238 260 215 212 226 202 246 225 225 254 287 283 275 285 272 253 261 252 247 240 234 226 213 209 206 205 206 210 205 193 194 194 190 173 168 173 190 212 228 226 225 239 220 194
247 230 211 225 233 199 225 209 212 238 225 278 240 238 279 269 259 257 251 245 239 225 214 211 208 207 213 211 201 197 190 192 185 180 182 183 196 212 218 218 213 225 218 205
259 258 216 210 255 191 172 63 53 59 106 261 225 211 274 239 234 256 254 253 243 225 216 212 209 200 209 203 191 188 190 196 189 189 196 198 199 199 198 218 220 228 226 222
318 296 267 161 103 16 105 97 11 332 293 251 208 220 252 248 239 236 248 254 247 222 208 205 204 200 203 196 194 192 192 204 200 200 208 212 207 201 206 215 220 222 222 224
268 284 264 236 191 197 202 162 173 219 241 274 249 236 254 261 271 262 254 248 240 224 213 210 209 206 206 204 198 193 199 211 207 210 220 220 214 213 218 219 219 221 221 222
198 258 310 308 288 167 169 196 171 155 257 268 259 276 298 273 297 298 277 260 243 232 228 220 212 210 207 204 203 200 201 208 212 218 222 221 218 215 217 219 218 225 226 220
171 251 292 313 10 347 168 150 124 161 210 262 279 269 258 276 275 282 276 260 256 241 235 229 217 214 210 206 204 198 200 207 219 220 222 227 223 216 211 208 210 216 217 209
153 198 301 328 210 209 147 157 156 167 191 206 271 271 235 243 255 259 260 257 249 241 236 231 225 215 206 200 190 194 200 200 214 216 225 226 223 212 203 199 206 212 208 197
150 152 253 259 263 273 201 195 161 181 236 212 236 269 279 256 282 285 284 281 271 249 241 233 218 202 196 200 198 198 202 210 220 211 205 207 196 193 195 200 206 199 198 202
153 142 323 330 335 356 243 225 195 174 182 202 220 264 305 326 316 312 301 296 294 272 253 240 220 210 206 207 208 211 214 218 237 201 175 173 186 191 199 208 205 193 192 197
154 170 199 224 241 218 252 248 208 181 216 238 236 262 288 299 304 305 300 290 287 288 259 239 235 229 219 213 208 210 225 221 211 170 162 175 201 204 191 189 186 185 178 180
139 214 229 251 263 252 249 253 226 217 219 229 251 257 272 283 288 288 282 277 282 293 294 256 237 235 229 222 220 215 225 223 175 150 193 216 197 161 128 126 152 160 163 173
155 208 225 267 252 253 268 263 243 240 239 241 258 268 273 281 285 287 276 261 261 263 263 269 252 232 230 225 225 215 225 224 164 164 204 244 113 115 117 115 126 138 142 141
179 167 187 254 283 309 273 250 229 225 219 212 242 259 284 293 284 273 260 248 251 254 252 247 250 235 232 227 218 213 221 199 163 169 174 157 135 128 113 106 108 123 126 125
177 171 193 246 31 242 246 223 217 231 244 231 253 279 283 279 288 277 251 237 243 241 242 244 244 259 251 227 212 196 187 174 165 170 183 175 154 141 112 96 104 119 115 127
185 176 186 192 238 273 290 276 212 218 266 247 254 275 294 307 316 293 265 231 233 235 237 239 232 240 248 231 195 160 175 166 158 188 208 206 178 160 146 157 195 170 122 141
115 164 182 183 215 249 261 283 271 141 283 274 251 267 283 333 301 287 301 283 260 242 228 224 209 200 226 251 169 151 174 176 196 215 213 201 180 178 188 196 205 210 165 172
166 190 205 211 229 259 267 287 100 162 263 293 272 270 257 238 249 278 294 292 268 242 229 191 180 201 237 225 150 159 179 210 226 210 175 160 171 191 194 186 185 169 146 123
183 187 200 185 217 254 245 135 191 238 278 284 278 272 261 262 277 283 278 271 272 275 265 194 163 229 283 192 155 172 216 237 195 157 154 165 180 193 174 168 175 157 150 145
205 199 197 200 222 253 219 227 252 263 273 276 275 278 266 266 273 279 273 260 264 244 254 242 172 198 311 276 165 186 235 192 139 137 170 182 175 186 173 166 167 162 162 181
253 220 204 251 265 268 268 271 277 270 265 273 275 277 266 261 262 271 267 263 263 254 237 213 166 188 290 308 189 195 196 168 147 156 160 148 151 155 141 160 167 175 197 206
228 187 218 254 276 297 283 270 276 282 284 286 290 279 259 244 255 253 249 254 245 247 258 205 192 218 260 273 262 199 176 154 145 155 154 141 138 141 131 118 204 209 222 220
202 194 204 243 254 251 273 284 281 282 285 283 287 294 280 233 240 245 247 251 238 229 232 211 212 222 258 239 244 242 179 162 154 169 170 164 159 151 145 130 357 331 268 273
Height
1494 1499 1501 1499 1499 1500 1502 1504 1504 1501 1498 1498 1496 1492 1488 1486 1486 1485 1484 1484 1484 1484 1486 1487 1488 1489 1490 1492 1493 1494 1496 1497 1499 1500 1501 1501 1502 1503 1504 1505 1506 1507 1508 1509
1499 1499 1497 1497 1498 1500 1502 1503 1503 1500 1498 1498 1495 1490 1484 1482 1481 1480 1480 1480 1480 1481 1482 1483 1485 1486 1486 1488 1489 1491 1492 1494 1495 1496 1498 1498 1499 1500 1501 1502 1503 1504 1505 1505
1497 1496 1494 1496 1498 1499 1500 1502 1501 1500 1498 1497 1496 1488 1482 1477 1477 1476 1476 1475 1476 1477 1478 1479 1481 1482 1483 1484 1486 1487 1488 1490 1491 1493 1494 1495 1496 1497 1498 1498 1499 1500 1501 1502
1496 1494 1494 1495 1497 1497 1499 1497 1498 1499 1502 1502 1499 1496 1480 1476 1475 1472 1471 1471 1471 1473 1474 1475 1477 1478 1480 1481 1483 1484 1485 1487 1488 1489 1490 1491 1492 1492 1494 1495 1496 1497 1498 1499
1495 1493 1493 1494 1494 1495 1496 1495 1497 1499 1501 1504 1501 1501 1482 1477 1474 1469 1467 1467 1467 1469 1470 1472 1473 1475 1476 1478 1479 1481 1482 1483 1484 1486 1487 1488 1489 1490 1491 1492 1493 1493 1494 1495
1493 1492 1492 1492 1492 1493 1495 1497 1499 1503 1505 1505 1498 1500 1483 1477 1469 1465 1463 1463 1464 1465 1467 1468 1470 1472 1473 1475 1476 1477 1478 1479 1481 1482 1483 1484 1485 1486 1487 1488 1489 1490 1491 1492
1495 1492 1491 1491 1493 1494 1495 1501 1508 1508 1511 1501 1495 1494 1479 1467 1463 1462 1461 1460 1461 1462 1464 1465 1467 1468 1469 1471 1472 1473 1474 1475 1477 1478 1479 1480 1481 1482 1483 1484 1485 1486 1487 1488
1499 1498 1491 1491 1491 1494 1494 1496 1505 1507 1507 1500 1496 1490 1472 1463 1460 1459 1459 1459 1459 1460 1462 1463 1464 1465 1466 1467 1469 1470 1471 1472 1473 1474 1475 1476 1477 1478 1479 1480 1481 1482 1483 1484
1500 1497 1492 1491 1490 1490 1493 1496 1496 1505 1509 1507 1494 1485 1471 1461 1460 1458 1458 1457 1457 1459 1460 1461 1462 1463 1463 1464 1465 1467 1467 1468 1469 1470 1471 1472 1473 1474 1475 1476 1477 1478 1480 1481
1495 1499 1493 1491 1490 1490 1491 1493 1501 1503 1503 1499 1488 1484 1473 1461 1460 1458 1457 1456 1456 1457 1458 1459 1459 1460 1461 1462 1463 1464 1465 1465 1466 1467 1467 1468 1469 1470 1471 1472 1473 1474 1476 1477
1495 1499 1497 1494 1492 1491 1493 1495 1495 1500 1501 1498 1495 1479 1462 1460 1457 1457 1455 1454 1454 1455 1455 1456 1456 1458 1459 1459 1460 1461 1462 1462 1463 1463 1464 1464 1465 1465 1466 1467 1469 1470 1472 1473
1495 1500 1501 1495 1491 1490 1490 1490 1495 1499 1500 1499 1495 1478 1458 1458 1456 1455 1454 1454 1453 1453 1453 1454 1454 1455 1456 1457 1457 1458 1459 1459 1460 1460 1460 1461 1462 1462 1463 1464 1465 1467 1468 1469
1494 1499 1500 1493 1495 1493 1492 1490 1491 1494 1497 1499 1495 1475 1457 1457 1455 1454 1453 1452 1452 1451 1451 1451 1452 1452 1453 1454 1455 1456 1456 1457 1457 1457 1457 1458 1458 1459 1460 1461 1462 1463 1464 1465
1489 1495 1497 1493 1489 1491 1492 1489 1489 1492 1494 1492 1484 1470 1459 1457 1455 1454 1452 1451 1450 1450 1450 1449 1450 1450 1451 1451 1452 1453 1453 1454 1454 1454 1454 1455 1455 1456 1456 1457 1458 1460 1461 1461
1489 1493 1493 1490 1488 1489 1487 1484 1484 1485 1483 1483 1472 1468 1458 1456 1455 1452 1451 1449 1449 1449 1448 1448 1448 1448 1449 1449 1450 1450 1451 1451 1452 1452 1452 1452 1453 1453 1454 1454 1455 1456 1457 1458
1488 1492 1493 1490 1485 1485 1483 1478 1477 1477 1476 1473 1468 1463 1455 1453 1452 1450 1449 1448 1447 1446 1446 1446 1447 1447 1447 1447 1447 1448 1448 1449 1449 1450 1450 1451 1451 1451 1451 1452 1452 1453 1454 1455
1489 1491 1492 1489 1486 1483 1481 1471 1470 1470 1468 1468 1465 1458 1453 1452 1449 1447 1446 1445 1445 1445 1445 1445 1445 1445 1445 1445 1445 1446 1446 1446 1447 1447 1448 1448 1448 1448 1449 1449 1450 1451 1451 1452
1486 1489 1491 1490 1489 1485 1468 1463 1463 1463 1461 1461 1458 1454 1451 1449 1446 1444 1443 1443 1442 1443 1443 1443 1443 1443 1443 1443 1443 1444 1444 1444 1445 1445 1445 1445 1446 1447 1447 1447 1448 1448 1449 1450
1481 1484 1488 1489 1487 1478 1466 1462 1462 1462 1458 1454 1454 1451 1448 1447 1444 1441 1440 1440 1440 1441 1441 1441 1441 1440 1440 1440 1441 1441 1441 1441 1442 1443 1443 1444 1444 1444 1445 1445 1445 1446 1446 1447
1481 1482 1485 1486 1485 1479 1463 1458 1457 1459 1458 1450 1449 1448 1447 1446 1447 1440 1438 1438 1438 1438 1438 1438 1438 1438 1438 1438 1438 1438 1438 1438 1439 1440 1441 1442 1442 1442 1443 1443 1444 1444 1444 1445
1482 1484 1484 1483 1481 1472 1459 1457 1457 1463 1456 1448 1446 1445 1444 1444 1442 1439 1437 1436 1436 1435 1436 1436 1436 1435 1435 1435 1436 1436 1436 1436 1437 1438 1439 1439 1440 1440 1441 1441 1442 1442 1442 1442
1476 1480 1482 1482 1479 1469 1455 1456 1457 1452 1447 1445 1444 1442 1441 1439 1437 1436 1435 1434 1433 1433 1433 1433 1433 1433 1433 1434 1434 1433 1433 1434 1435 1435 1436 1436 1437 1438 1439 1439 1439 1440 1440 1440
1471 1469 1468 1468 1462 1453 1451 1450 1448 1447 1445 1443 1441 1439 1438 1436 1434 1433 1432 1432 1431 1431 1431 1431 1431 1431 1431 1431 1432 1431 1432 1432 1432 1432 1433 1433 1434 1435 1436 1437 1437 1437 1438 1438
1466 1463 1464 1462 1454 1449 1447 1446 1444 1443 1441 1439 1437 1436 1434 1432 1431 1430 1430 1430 1429 1429 1429 1430 1430 1429 1429 1429 1430 1430 1430 1430 1430 1430 1430 1430 1431 1433 1434 1435 1435 1435 1436 1436
1460 1461 1461 1458 1450 1446 1442 1442 1440 1438 1437 1435 1433 1432 1431 1430 1429 1428 1428 1427 1427 1427 1427 1428 1428 1428 1428 1428 1428 1428 1428 1428 1428 1428 1428 1429 1430 1431 1432 1433 1433 1434 1434 1434
1455 1456 1456 1451 1446 1445 1441 1439 1437 1435 1433 1431 1429 1428 1427 1427 1426 1426 1426 1426 1425 1425 1426 1426 1426 1426 1426 1425 1426 1426 1426 1426 1426 1426 1427 1428 1428 1429 1430 1430 1431 1432 1432 1432